Location: Makakahi
(40.6833°S, 175.6000°E)
Time: 20:07:00
(UTC+00:00)

FENGYUN 1C DEB - Pass Details

Date: 08 February 2026
Orbit: 839 x 906 km, 98.9° (Epoch: 9 March)

Event Time Altitude Azimuth Distance (km) Brightness Sun altitude
Rises 09:26:48 0° 170° (S) 3,436 ? -19.8°
Reaches altitude 10° 09:29:11 10° 172° (S) 2,499 ? -20.1°
Maximum altitude 09:34:40 65° 252° (WSW) 943 ? -20.9°
Drops below altitude 10° 09:40:10 10° 333° (NNW) 2,504 ? -21.6°
Enters shadow 09:41:39 - 335° (NNW) 3,083 ? -21.8°
